[[{"header":{"parameterUnit":"m.s-1","parameterCategory":1,"la1":30.2991,"la2":30.254,"lo1":-89.0895,"lo2":-89.0444,"dy":0.0017,"dx":0.0017,"nx":28,"ny":28,"refTime":"2025-04-14T09:00:00:Z","depth":0,"parameterNumber":2,"parameterNumberName":"U-component_of_WINDS"},"data":[0,0,0,0,0,0,0,0,0,0,0,0,0,0,0,0,0,0,0,0,0,0,0,0,0,0,0,0,0,0,0,0,0,0,0,0,0,0,0,0,0,0,0,0,0,0,0,0,0,0,0,0,0,0,0,0,0,0,6.2517,6.2518,0,6.2687,6.2689,6.2691,6.2649,6.2646,6.2642,6.2639,6.2815,6.2822,6.283,0,0,0,0,0,0,0,0,0,0,0,0,0,6.2154,6.2161,6.2516,6.2518,6.2521,6.2686,6.2689,6.2691,6.265,6.2646,6.2642,6.2638,6.2812,6.2821,6.283,0,0,0,0,0,0,0,0,0,0,0,0,0,6.2317,6.2163,6.2516,6.252,6.2522,6.2686,6.2689,6.2692,6.265,6.2645,6.264,6.2636,6.2809,6.282,6.2832,6.3003,0,0,6.2867,6.2872,0,0,0,0,0,0,0,0,6.2307,6.233,6.2517,6.252,6.2522,6.2641,6.2625,6.2796,6.2652,6.2602,6.2639,6.2633,6.2761,6.2776,6.2819,6.3011,6.3018,6.2868,6.2875,6.288,6.2884,0,0,0,0,0,0,0,6.2296,6.2322,6.2584,6.252,6.2523,6.2513,6.253,6.2657,6.2707,6.2606,6.2603,6.2624,6.2762,6.2808,6.2823,6.3021,6.2868,6.2878,6.2885,6.289,6.3357,6.3363,0,0,0,0,0,0,6.2283,6.2313,6.2578,6.2589,6.2401,6.2523,6.2543,6.2608,6.2706,6.2716,6.2628,6.2621,6.2791,6.2809,6.2829,6.3033,6.288,6.2891,6.2898,6.3352,6.3359,6.3364,0,0,0,0,0,0,6.2275,6.2307,6.2571,6.245,6.2483,6.2535,6.2608,6.2614,6.2661,6.2722,6.2731,6.2666,6.2787,6.2813,6.2959,6.3038,6.2896,6.2907,6.3346,6.3354,6.3362,6.3443,0,0,0,0,0,0,6.2265,6.2304,6.237,6.2452,6.249,6.2699,6.2614,6.2621,6.2681,6.2674,6.2761,6.277,6.2785,6.2942,6.297,6.3052,6.2916,6.3339,6.3349,6.3359,6.3433,6.3453,6.3469,0,0,0,0,0,6.2252,6.2388,6.2374,6.2406,6.2573,6.2704,6.2725,6.274,6.2687,6.2753,6.2792,6.2767,6.3025,6.2957,6.2989,6.3075,6.3334,6.3346,6.3358,6.3425,6.3449,6.3469,0,0,0,0,0,0,6.2315,6.2398,6.2384,6.255,6.262,6.2696,6.2781,6.2765,6.2852,6.2842,6.2856,6.2876,6.3025,6.3065,6.2987,6.3243,6.3172,6.3191,6.3212,6.3235,6.3253,6.3239,6.2926,0,0,0,0,0,6.2348,6.2447,6.2514,6.2654,6.269,6.2729,6.2787,6.2792,6.2865,6.2894,6.2944,6.3016,6.3113,6.3176,6.3269,6.3439,6.3456,6.3514,6.3532,6.3546,6.3562,6.3652,6.3677,6.3405,6.3405,6.3404,0,0,6.2417,6.2475,6.2537,6.2668,6.2723,6.2824,6.2755,6.2866,6.294,6.2911,6.3051,6.309,6.3171,6.3329,6.3402,6.3367,6.3641,6.3562,6.3573,6.3581,6.3667,6.3693,6.3716,6.3413,6.3412,6.341,0,0,6.2594,6.2649,6.277,6.2826,6.2909,6.2934,6.2963,6.3041,6.3066,6.3207,6.3186,6.3275,6.3442,6.35,6.3551,6.3747,6.3726,6.3777,6.3871,6.3958,6.398,6.3999,6.4066,6.409,6.3793,6.3794,6.3794,0,6.267,6.2822,6.2834,6.2946,6.3003,6.2981,6.3102,6.3156,6.3265,6.3305,6.3265,6.3472,6.3525,6.3695,6.3742,6.3786,6.3817,6.3767,6.3976,6.3995,6.4013,6.4077,6.4103,6.3799,6.3798,6.3798,6.3797,0,6.2909,6.3015,6.3102,6.3207,6.3274,6.339,6.3419,6.3486,6.3485,6.3513,6.3655,6.3718,6.3821,6.3862,6.3863,6.4032,6.4007,6.3972,6.39,6.4044,6.4104,6.4129,6.3807,6.3805,6.3803,6.3802,0,0,6.3131,6.3239,6.3271,6.3317,6.3406,6.3487,6.3602,6.3702,6.3757,6.3833,6.3928,6.4069,6.4035,6.4093,6.41,6.4177,6.4324,6.4132,6.4134,6.4163,6.451,6.4534,6.4563,6.4312,6.4317,6.432,6.4502,0,6.3314,6.3515,6.3528,6.371,6.3805,6.3784,6.3883,6.3948,6.3977,6.4063,6.4095,6.4193,6.4144,6.4178,6.4253,6.4291,6.4394,6.4278,6.4398,6.4402,6.4376,6.4595,6.4622,6.4791,6.4526,6.453,6.4533,0,6.3555,6.3636,6.3827,6.3899,6.394,6.4029,6.412,6.4202,6.4274,6.429,6.4354,6.4349,6.4464,6.4389,6.4547,6.4468,6.4518,6.4544,6.455,6.456,6.4475,6.4608,6.4845,6.4869,6.4571,6.4568,6.4565,0,6.3694,6.3852,6.3985,6.4025,6.4114,6.4176,6.4216,6.4283,6.4341,6.4421,6.4459,6.4552,6.4602,6.4673,6.4693,6.4637,6.485,6.4777,6.4865,6.4864,6.4909,6.4906,6.5154,6.4946,6.4945,6.4945,6.4944,0,6.3896,6.4013,6.4048,6.413,6.4259,6.4273,6.44,6.4436,6.4495,6.4583,6.4571,6.4653,6.4675,6.4761,6.4778,6.4904,6.4928,6.4943,6.4945,6.4942,6.494,6.4974,6.4962,6.4952,6.495,6.4949,6.4948,0,6.4073,6.4102,6.4245,6.4316,6.4337,6.4428,6.4489,6.4567,6.4594,6.4704,6.4731,6.4774,6.4874,6.4901,6.5022,6.5032,6.518,6.5174,6.5156,6.5155,6.524,6.523,6.5517,6.5554,6.5323,6.5325,6.5327,0,6.4199,6.4288,6.4368,6.4425,6.4467,6.456,6.4618,6.4635,6.4696,6.4784,6.485,6.4949,6.5028,6.5189,6.523,6.5322,6.5315,6.5409,6.5329,6.5322,6.5313,6.5306,6.5314,6.5424,6.5426,6.5428,6.543,0,6.4418,6.4427,6.4512,6.4602,6.4672,6.4743,6.4812,6.4859,6.4885,6.4955,6.5056,6.5118,6.5239,6.5336,6.5428,6.5468,6.5453,6.5455,6.548,6.5477,6.5461,6.5467,6.5194,6.5448,6.5446,6.5445,6.5444,6.5443,6.4572,6.4648,6.4715,6.481,6.4862,6.4926,6.5001,6.5037,6.5122,6.5221,6.5226,6.5335,6.5403,6.5524,6.5569,6.5654,6.5626,6.5662,6.5671,6.5679,6.5685,6.545,6.5672,6.5671,6.5671,6.567,6.567,0,6.4788,6.4829,6.4916,6.5011,6.5084,6.5063,6.5137,6.52,6.5296,6.536,6.5437,6.5552,6.5646,6.5694,6.5786,6.5845,6.584,6.5868,6.5863,6.5871,6.5707,6.5675,6.587,6.587,6.587,6.587,6.587,6.587,6.4909,6.5036,6.5052,6.5204,6.5245,6.5352,6.5395,6.5453,6.5503,6.5632,6.5709,6.5739,6.5796,6.5892,6.5976,6.5987,6.6021,6.6052,6.606,6.5904,6.5884,6.5864,6.5834,6.606,6.606,6.6217,6.6219,6.622]},{"header":{"parameterUnit":"m.s-1","parameterCategory":1,"la1":30.2991,"la2":30.254,"lo1":-89.0895,"lo2":-89.0444,"dy":0.0017,"dx":0.0017,"nx":28,"ny":28,"refTime":"2025-04-14T09:00:00:Z","depth":0,"parameterNumber":3,"parameterNumberName":"V-component_of_WINDS"},"data":[0,0,0,0,0,0,0,0,0,0,0,0,0,0,0,0,0,0,0,0,0,0,0,0,0,0,0,0,0,0,0,0,0,0,0,0,0,0,0,0,0,0,0,0,0,0,0,0,0,0,0,0,0,0,0,0,0,0,1.5461,1.5462,0,1.5524,1.5524,1.5525,1.5498,1.5496,1.5495,1.5493,1.5559,1.5562,1.5566,0,0,0,0,0,0,0,0,0,0,0,0,0,1.5319,1.5321,1.5461,1.5462,1.5463,1.5524,1.5524,1.5525,1.5498,1.5496,1.5495,1.5493,1.5558,1.5562,1.5566,0,0,0,0,0,0,0,0,0,0,0,0,0,1.5381,1.5322,1.5461,1.5456,1.5457,1.5523,1.5524,1.5525,1.5499,1.5496,1.5494,1.5492,1.5557,1.5562,1.5566,1.5642,0,0,1.5581,1.5583,0,0,0,0,0,0,0,0,1.5377,1.5386,1.5456,1.5457,1.5457,1.5501,1.5498,1.5565,1.5499,1.5483,1.5493,1.5491,1.5542,1.5548,1.5565,1.5645,1.5648,1.5581,1.5584,1.5586,1.5588,0,0,0,0,0,0,0,1.5373,1.5383,1.5486,1.5457,1.5458,1.5451,1.5458,1.5511,1.5524,1.5484,1.5482,1.549,1.5542,1.556,1.5566,1.5649,1.5581,1.5586,1.5588,1.559,1.5793,1.5796,0,0,0,0,0,0,1.5369,1.538,1.5484,1.5488,1.5411,1.5456,1.5463,1.5489,1.5524,1.5527,1.5492,1.5488,1.5553,1.556,1.5568,1.5658,1.5586,1.5591,1.5594,1.5791,1.5794,1.5796,0,0,0,0,0,0,1.5366,1.5378,1.5481,1.5433,1.5446,1.5461,1.549,1.5491,1.551,1.553,1.5532,1.5508,1.5551,1.5561,1.5623,1.566,1.5593,1.5597,1.5788,1.5792,1.5795,1.584,0,0,0,0,0,0,1.5362,1.5377,1.5406,1.5434,1.5449,1.5536,1.5493,1.5494,1.5518,1.5514,1.5545,1.5549,1.555,1.5616,1.5628,1.5666,1.5601,1.5784,1.5789,1.5794,1.5835,1.5845,1.5853,0,0,0,0,0,1.5357,1.5417,1.5408,1.542,1.5485,1.5538,1.5546,1.5547,1.5521,1.555,1.5563,1.5548,1.5654,1.5623,1.5636,1.5675,1.5782,1.5788,1.5794,1.5831,1.5843,1.5853,0,0,0,0,0,0,1.5393,1.542,1.5411,1.5481,1.5507,1.5533,1.557,1.5559,1.5593,1.5588,1.5588,1.5595,1.5659,1.5673,1.5638,1.575,1.5714,1.5723,1.5738,1.575,1.5758,1.5754,1.5605,0,0,0,0,0,1.5409,1.545,1.5471,1.5532,1.5545,1.5555,1.5578,1.5576,1.5603,1.5615,1.5632,1.5659,1.5698,1.5725,1.5762,1.5836,1.5843,1.587,1.5879,1.5886,1.5894,1.5934,1.5946,1.5815,1.5815,1.5815,0,0,1.5444,1.5463,1.5489,1.5539,1.5559,1.5601,1.5565,1.5611,1.5642,1.5622,1.5681,1.5695,1.5725,1.5793,1.5824,1.5807,1.5931,1.5893,1.5899,1.5903,1.5941,1.5953,1.5964,1.5819,1.5818,1.5818,0,0,1.5527,1.5546,1.5598,1.5619,1.5649,1.5655,1.5668,1.5695,1.5703,1.5762,1.5747,1.5784,1.5853,1.5875,1.5895,1.5985,1.5973,1.5998,1.6044,1.6083,1.6094,1.6103,1.6135,1.6147,1.6005,1.6005,1.6005,0,1.5566,1.5629,1.5627,1.5674,1.5696,1.5679,1.5731,1.5751,1.5793,1.5809,1.5789,1.5873,1.5892,1.5966,1.5987,1.6004,1.6019,1.5995,1.6092,1.6101,1.611,1.6141,1.6153,1.6008,1.6008,1.6007,1.6007,0,1.5675,1.5719,1.5757,1.5796,1.5823,1.5873,1.5879,1.5906,1.5901,1.5909,1.597,1.5992,1.6033,1.605,1.6046,1.6123,1.6111,1.6092,1.6056,1.6125,1.6154,1.6166,1.6012,1.6011,1.601,1.6009,0,0,1.5785,1.5822,1.5836,1.5853,1.5885,1.5918,1.5967,1.6007,1.603,1.6059,1.61,1.6157,1.6139,1.6162,1.616,1.6194,1.6265,1.6171,1.6171,1.6188,1.635,1.6365,1.6379,1.6256,1.6258,1.626,1.6348,0,1.5871,1.5957,1.5955,1.6034,1.6074,1.6057,1.61,1.6124,1.6132,1.6168,1.6177,1.6218,1.6191,1.6204,1.6237,1.6249,1.6297,1.6243,1.6294,1.6296,1.6288,1.6394,1.641,1.6492,1.6359,1.6361,1.6362,0,1.5984,1.6015,1.6098,1.6123,1.614,1.6178,1.6214,1.6247,1.6274,1.6278,1.6303,1.6295,1.6345,1.6307,1.6375,1.6338,1.6359,1.6368,1.6371,1.6376,1.6334,1.6403,1.6518,1.653,1.638,1.6379,1.6377,0,1.6056,1.6119,1.6177,1.6192,1.6222,1.6249,1.6263,1.6288,1.6311,1.6343,1.6358,1.6395,1.6415,1.6444,1.6447,1.6419,1.6516,1.6478,1.652,1.652,1.6543,1.6541,1.6663,1.6555,1.6555,1.6554,1.6554,0,1.6153,1.6205,1.6209,1.6245,1.6302,1.63,1.6356,1.6368,1.6389,1.6427,1.6414,1.6449,1.645,1.6487,1.6489,1.6545,1.6554,1.6559,1.6559,1.6561,1.656,1.6575,1.657,1.6558,1.6557,1.6556,1.6556,0,1.6244,1.6249,1.6311,1.6334,1.6341,1.6382,1.6402,1.6436,1.6442,1.649,1.6501,1.6512,1.6554,1.6559,1.6608,1.6609,1.6677,1.6671,1.6668,1.6668,1.671,1.6706,1.6846,1.6865,1.6744,1.6745,1.6746,0,1.6306,1.6345,1.6372,1.6396,1.6411,1.645,1.6473,1.6473,1.6498,1.653,1.656,1.6601,1.6633,1.6701,1.6713,1.6751,1.6746,1.6792,1.6751,1.6751,1.6747,1.6745,1.6749,1.6801,1.6802,1.6803,1.6804,0,1.6415,1.6416,1.645,1.6486,1.6514,1.6542,1.6569,1.6589,1.6591,1.662,1.6663,1.6688,1.6737,1.6778,1.6814,1.6829,1.6817,1.6816,1.6828,1.6831,1.6827,1.683,1.669,1.6813,1.6812,1.6812,1.6811,1.6811,1.6494,1.6528,1.6552,1.659,1.661,1.6634,1.6667,1.6677,1.6712,1.6752,1.675,1.6796,1.6821,1.6869,1.6886,1.6922,1.6907,1.6924,1.6929,1.6933,1.6938,1.6821,1.6929,1.6929,1.6928,1.6928,1.6928,0,1.6603,1.6617,1.6653,1.6689,1.672,1.6705,1.6733,1.676,1.6801,1.6824,1.6856,1.6905,1.6943,1.6958,1.6996,1.7023,1.7018,1.7033,1.7031,1.7035,1.6949,1.6935,1.7036,1.7036,1.7035,1.7035,1.7035,1.7035,1.6663,1.6719,1.6722,1.6788,1.6802,1.6847,1.6864,1.6887,1.6906,1.696,1.6992,1.7001,1.7021,1.706,1.7095,1.7099,1.7113,1.713,1.7132,1.7052,1.7041,1.703,1.7017,1.7133,1.7134,1.7214,1.7215,1.7215]}]]